Location: Unnamed
(48.2382°N, 16.3826°E)
Time: 08:13:20
(UTC+02:00)

Falcon 9 debris - Pass Details

Date: 14 August 2020
Orbit: 426 x 434 km, 53.0° (Epoch: 21 September)

Event Time Altitude Azimuth Distance (km) Brightness Sun altitude
Rises 22:27:16 0° 282° (WNW) 2,409 ? -19.2°
Reaches altitude 10° 22:29:29 10° 292° (WNW) 1,542 ? -19.4°
Maximum altitude 22:32:43 35° 0° (N) 717 ? -19.8°
Enters shadow 22:34:38 20° 56° (NE) 1,084 ? -20.0°
